This is the latest recevied weather packets stored in our database for station/object N2PUI. If no packets are shown the sender has not sent any weather packets the latest 10 day(s).
| Time | Temp. | Humidity | Pressure | Rain* | Wind** | Luminosity | Snow |
|---|---|---|---|---|---|---|---|
| 1778077639 | 13.33° C | 95% | 1006.6 hPa | 0 mm | - | 144 W/m² | - |
| 1778077336 | 12.78° C | 95% | 1006.6 hPa | 1.27 mm | - | 155 W/m² | - |
| 1778077034 | 13.33° C | 95% | 1006.7 hPa | 1.27 mm | - | 184 W/m² | - |
| 1778076732 | 12.78° C | 95% | 1006.8 hPa | 0 mm | - | 140 W/m² | - |
| 1778076430 | 12.78° C | 95% | 1006.4 hPa | 0 mm | - | 173 W/m² | - |
| 1778076126 | 12.78° C | 95% | 1006.8 hPa | 1.78 mm | - | 145 W/m² | - |
| 1778075823 | 12.78° C | 95% | 1007 hPa | 1.78 mm | - | 135 W/m² | - |
| 1778075519 | 12.78° C | 95% | 1006.9 hPa | 0 mm | - | 101 W/m² | - |
| 1778075216 | 12.22° C | 95% | 1007 hPa | 1.27 mm | - | 119 W/m² | - |
| 1778074912 | 12.22° C | 95% | 1007 hPa | 3.05 mm | - | 96 W/m² | - |
| 1778074609 | 11.67° C | 95% | 1007.1 hPa | 3.05 mm | - | 96 W/m² | - |
| 1778074306 | 11.67° C | 95% | 1007.4 hPa | 3.05 mm | - | 56 W/m² | - |
| 1778074004 | 11.11° C | 95% | 1007.2 hPa | 3.05 mm | - | 30 W/m² | - |
| 1778073700 | 11.11° C | 95% | 1007.3 hPa | 4.32 mm | - | 39 W/m² | - |
| 1778073398 | 11.67° C | 95% | 1007.2 hPa | 4.83 mm | - | 46 W/m² | - |
| 1778073094 | 11.67° C | 95% | 1007.5 hPa | 3.05 mm | - | 46 W/m² | - |
| 1778072791 | 11.11° C | 95% | 1007.6 hPa | 4.83 mm | - | 47 W/m² | - |
| 1778072488 | 10.56° C | 95% | 1007.5 hPa | 6.6 mm | - | 43 W/m² | - |
| 1778072187 | 10° C | 95% | 1007.8 hPa | 4.32 mm | - | 20 W/m² | - |
| 1778071884 | 10° C | 95% | 1008 hPa | 4.32 mm | - | 35 W/m² | - |
| 1778071582 | 10° C | 95% | 1007.5 hPa | 4.83 mm | - | 33 W/m² | - |
| 1778071279 | 10° C | 95% | 1007.3 hPa | 3.05 mm | - | 25 W/m² | - |
| 1778070977 | 10° C | 95% | 1007.4 hPa | 3.05 mm | - | 26 W/m² | - |
| 1778070675 | 10° C | 95% | 1007.3 hPa | 3.05 mm | - | 16 W/m² | - |
| 1778070371 | 10° C | 95% | 1007.4 hPa | 1.27 mm | - | 20 W/m² | - |
* Rain latest hour (hover to see other rain measurements)
** Current wind speed in m/s (hover to see current wind gust speed)